Tracking 19562 objects as of 24-Mar-2019
HD Live streaming from Space Station
objects crossing your sky now

OPS 9443 (DSCS 2-13)

Track OPS 9443 (DSCS 2-13) now!
OPS 9443 (DSCS 2-13) is classified as:


NORAD ID: 11621
Int'l Code: 1979-098A
Perigee: 37,107.0 km
Apogee: 37,206.2 km
Inclination: 15.1 °
Period: 1,506.3 minutes
Semi major axis: 43527 km
RCS: 5.0705 m2 (large)
Launch date: November 21, 1979
Source: United States (US)
Launch site: AIR FORCE EASTERN TEST RANGE (AFETR)
aabbcc
Your satellite tracking list
Your tracking list is empty




NASA's NSSDC Master Catalog

Two Line Element Set (TLE):
1 11621U 79098A   19081.47768174 -.00000172 +00000-0 +00000-0 0  9998
2 11621 015.1143 334.8923 0011399 039.8574 145.5813 00.95599597590121
Source of the keplerian elements: AFSPC